Radiation Dose at Monitoring Post of Fukushima Daini Nuclear Power Station
Date,Time,MP-1(microSv/h),MP-2(microSv/h),MP-3(microSv/h),MP-4(microSv/h),MP-5(microSv/h),MP-6(microSv/h),MP-7(microSv/h),Wind Direction,Wind Velocity(m/s),Rain
2016/01/20,00:00,0.455,0.268,0.477,0.436,0.415,0.218,0.189,west,12.0,No
2016/01/20,00:10,0.456,0.266,0.479,0.436,0.416,0.218,0.189,west,12.0,No
2016/01/20,00:20,0.455,0.267,0.478,0.435,0.417,0.218,0.190,west,12.8,No
2016/01/20,00:30,0.453,0.267,0.478,0.437,0.417,0.219,0.190,west,10.1,No
2016/01/20,00:40,0.453,0.267,0.478,0.437,0.416,0.219,0.190,west-northwest,13.1,No
2016/01/20,00:50,0.454,0.268,0.478,0.436,0.416,0.218,0.190,west,10.0,No
2016/01/20,01:00,0.456,0.267,0.479,0.433,0.415,0.218,0.190,west,11.7,No
2016/01/20,01:10,0.453,0.268,0.478,0.435,0.415,0.218,0.190,west,13.4,No
2016/01/20,01:20,0.455,0.267,0.477,0.434,0.418,0.218,0.190,west,15.5,No
2016/01/20,01:30,0.455,0.265,0.481,0.436,0.417,0.220,0.190,west,13.4,No
2016/01/20,01:40,0.455,0.266,0.480,0.435,0.417,0.220,0.189,west,13.4,No
2016/01/20,01:50,0.454,0.267,0.478,0.435,0.415,0.218,0.190,west-northwest,13.7,No
2016/01/20,02:00,0.455,0.267,0.480,0.436,0.415,0.220,0.190,west,13.7,No
2016/01/20,02:10,0.454,0.267,0.479,0.437,0.416,0.219,0.189,west,14.8,No
2016/01/20,02:20,0.456,0.267,0.481,0.436,0.417,0.219,0.190,west,15.1,No
2016/01/20,02:30,0.455,0.267,0.479,0.436,0.417,0.220,0.190,west,16.9,No
2016/01/20,02:40,0.456,0.266,0.479,0.436,0.417,0.220,0.190,west,14.2,No
2016/01/20,02:50,0.457,0.268,0.479,0.435,0.418,0.219,0.190,west,15.5,No
2016/01/20,03:00,0.455,0.267,0.482,0.436,0.418,0.220,0.189,west-northwest,12.0,No
2016/01/20,03:10,0.455,0.268,0.480,0.437,0.417,0.219,0.190,west,17.0,No
2016/01/20,03:20,0.456,0.268,0.479,0.436,0.417,0.220,0.191,west,15.1,No
2016/01/20,03:30,0.458,0.268,0.480,0.434,0.416,0.219,0.190,west-northwest,12.0,No
2016/01/20,03:40,0.457,0.267,0.481,0.437,0.415,0.220,0.191,west-northwest,14.0,No
2016/01/20,03:50,0.457,0.266,0.481,0.436,0.417,0.219,0.191,west,16.2,No
2016/01/20,04:00,0.457,0.268,0.480,0.437,0.416,0.219,0.191,west,17.0,No
2016/01/20,04:10,0.455,0.268,0.479,0.437,0.416,0.220,0.191,west,15.0,No
2016/01/20,04:20,0.456,0.267,0.480,0.437,0.416,0.220,0.190,west,12.3,No
2016/01/20,04:30,0.455,0.268,0.481,0.438,0.417,0.220,0.190,north,2.1,No
2016/01/20,04:40,0.456,0.268,0.481,0.437,0.416,0.220,0.191,east-southeast,4.0,No
2016/01/20,04:50,0.456,0.269,0.478,0.436,0.416,0.219,0.191,east-southeast,4.1,No
2016/01/20,05:00,0.456,0.267,0.480,0.436,0.417,0.219,0.191,northeast,3.8,No
2016/01/20,05:10,0.455,0.268,0.480,0.437,0.416,0.219,0.190,northeast,2.5,No
2016/01/20,05:20,0.457,0.267,0.480,0.438,0.416,0.220,0.191,west,3.0,No
2016/01/20,05:30,0.455,0.268,0.479,0.435,0.416,0.220,0.190,west-northwest,1.2,No
2016/01/20,05:40,0.454,0.267,0.480,0.436,0.417,0.219,0.191,east-southeast,2.3,No
2016/01/20,05:50,0.454,0.268,0.479,0.435,0.416,0.218,0.190,south,4.0,No
2016/01/20,06:00,0.455,0.267,0.482,0.438,0.415,0.219,0.190,south-southwest,3.4,No
2016/01/20,06:10,0.454,0.268,0.479,0.437,0.417,0.220,0.190,south-southwest,4.0,No
2016/01/20,06:20,0.453,0.266,0.480,0.435,0.416,0.220,0.191,south-southwest,5.3,No
2016/01/20,06:30,0.455,0.267,0.478,0.436,0.416,0.219,0.191,southwest,5.3,No
2016/01/20,06:40,0.456,0.268,0.480,0.435,0.415,0.220,0.190,southwest,5.4,No
2016/01/20,06:50,0.455,0.267,0.479,0.436,0.417,0.220,0.191,southwest,4.5,No
2016/01/20,07:00,0.455,0.267,0.479,0.436,0.416,0.219,0.191,south-southwest,1.5,No
2016/01/20,07:10,0.455,0.267,0.479,0.435,0.417,0.219,0.190,southwest,2.7,No
2016/01/20,07:20,0.454,0.266,0.479,0.434,0.417,0.219,0.191,southwest,3.7,No
2016/01/20,07:30,0.456,0.266,0.480,0.438,0.416,0.217,0.191,southwest,5.2,No
2016/01/20,07:40,0.455,0.267,0.478,0.436,0.416,0.219,0.191,southwest,4.1,No
2016/01/20,07:50,0.454,0.265,0.479,0.434,0.418,0.219,0.191,southwest,4.0,No
2016/01/20,08:00,0.456,0.267,0.479,0.435,0.416,0.220,0.191,southwest,4.0,No
2016/01/20,08:10,0.458,0.268,0.480,0.436,0.414,0.219,0.190,west-southwest,5.0,No
2016/01/20,08:20,0.456,0.266,0.478,0.434,0.415,0.219,0.190,west-southwest,5.1,No
2016/01/20,08:30,0.457,0.266,0.479,0.434,0.418,0.219,0.190,west-southwest,5.7,No
2016/01/20,08:40,0.455,0.268,0.480,0.435,0.416,0.218,0.190,southwest,5.1,No
2016/01/20,08:50,0.456,0.266,0.479,0.438,0.415,0.219,0.190,west-southwest,5.4,No
2016/01/20,09:00,0.456,0.267,0.478,0.436,0.414,0.220,0.191,west-southwest,4.8,No
2016/01/20,09:10,0.456,0.267,0.480,0.436,0.415,0.219,0.190,west-southwest,3.5,No
2016/01/20,09:20,0.456,0.267,0.480,0.437,0.416,0.218,0.189,west-northwest,3.4,No
2016/01/20,09:30,0.456,0.267,0.478,0.435,0.415,0.219,0.189,west-northwest,3.1,No
2016/01/20,09:40,0.456,0.266,0.479,0.435,0.415,0.220,0.190,northwest,4.1,No
2016/01/20,09:50,0.457,0.266,0.481,0.436,0.417,0.219,0.190,northwest,3.0,No
2016/01/20,10:00,0.455,0.266,0.481,0.433,0.414,0.220,0.190,north,4.7,No
2016/01/20,10:10,0.455,0.267,0.478,0.437,0.416,0.220,0.190,north-northwest,5.4,No
2016/01/20,10:20,0.459,0.268,0.480,0.435,0.417,0.219,0.191,north-northwest,3.6,No
2016/01/20,10:30,0.455,0.267,0.479,0.436,0.417,0.220,0.191,west-northwest,3.5,No
2016/01/20,10:40,0.458,0.267,0.479,0.438,0.417,0.219,0.190,west-northwest,5.8,No
2016/01/20,10:50,0.456,0.267,0.480,0.435,0.416,0.218,0.190,west-northwest,3.6,No
2016/01/20,11:00,0.456,0.269,0.478,0.437,0.417,0.218,0.191,northwest,1.5,No
2016/01/20,11:10,0.458,0.268,0.478,0.436,0.415,0.219,0.191,northwest,1.6,No
2016/01/20,11:20,0.458,0.267,0.481,0.436,0.417,0.219,0.190,northwest,4.3,No
2016/01/20,11:30,0.456,0.269,0.479,0.438,0.415,0.220,0.191,northwest,5.6,No
2016/01/20,11:40,0.458,0.267,0.478,0.435,0.417,0.221,0.191,north-northwest,7.4,No
2016/01/20,11:50,0.458,0.268,0.480,0.438,0.416,0.219,0.191,north-northwest,6.2,No
2016/01/20,12:00,0.457,0.268,0.478,0.437,0.419,0.220,0.192,north-northwest,9.0,No
2016/01/20,12:10,0.460,0.267,0.481,0.436,0.420,0.220,0.191,north-northwest,8.5,No
2016/01/20,12:20,0.455,0.270,0.481,0.438,0.415,0.219,0.191,north-northwest,7.3,No
2016/01/20,12:30,0.458,0.269,0.477,0.435,0.420,0.219,0.191,northwest,8.8,No
2016/01/20,12:40,0.459,0.268,0.481,0.438,0.418,0.220,0.191,north-northwest,10.3,No
2016/01/20,12:50,0.457,0.268,0.479,0.435,0.419,0.219,0.191,north-northwest,8.5,No
2016/01/20,13:00,0.457,0.268,0.480,0.437,0.420,0.219,0.191,northwest,8.2,No
2016/01/20,13:10,0.457,0.267,0.479,0.436,0.418,0.220,0.190,west-northwest,8.2,No
2016/01/20,13:20,0.457,0.268,0.480,0.434,0.419,0.219,0.192,northwest,6.7,No
2016/01/20,13:30,0.459,0.267,0.478,0.436,0.419,0.219,0.191,north-northwest,11.8,No
2016/01/20,13:40,0.457,0.268,0.478,0.434,0.418,0.220,0.191,northwest,7.7,No
2016/01/20,13:50,0.458,0.269,0.480,0.436,0.418,0.219,0.190,north-northwest,8.7,No
2016/01/20,14:00,0.458,0.267,0.479,0.435,0.418,0.220,0.191,northwest,8.2,No
2016/01/20,14:10,0.456,0.268,0.480,0.437,0.417,0.220,0.191,northwest,10.6,No
2016/01/20,14:20,0.459,0.268,0.480,0.436,0.420,0.220,0.190,northwest,12.0,No
2016/01/20,14:30,0.459,0.268,0.479,0.438,0.418,0.218,0.191,north-northwest,8.4,No
2016/01/20,14:40,0.459,0.269,0.481,0.439,0.418,0.219,0.191,west-northwest,8.5,No
2016/01/20,14:50,0.458,0.269,0.480,0.437,0.419,0.219,0.191,northwest,7.0,No
2016/01/20,15:00,0.459,0.266,0.479,0.440,0.418,0.218,0.190,northwest,10.7,No
2016/01/20,15:10,0.457,0.267,0.482,0.437,0.417,0.219,0.191,northwest,11.5,No
2016/01/20,15:20,0.456,0.266,0.481,0.436,0.418,0.218,0.191,northwest,11.2,No
2016/01/20,15:30,0.458,0.267,0.479,0.439,0.417,0.218,0.189,north-northwest,10.6,No
2016/01/20,15:40,0.457,0.267,0.481,0.435,0.417,0.218,0.191,north-northwest,7.6,No
2016/01/20,15:50,0.458,0.268,0.481,0.437,0.419,0.219,0.191,north-northwest,4.1,No
2016/01/20,16:00,0.458,0.268,0.479,0.438,0.419,0.219,0.190,west-northwest,3.7,No
2016/01/20,16:10,0.457,0.267,0.478,0.436,0.416,0.219,0.191,northwest,6.8,No
2016/01/20,16:20,0.457,0.268,0.480,0.436,0.418,0.218,0.190,northwest,5.8,No
2016/01/20,16:30,0.457,0.267,0.479,0.437,0.418,0.218,0.191,northwest,8.2,No
2016/01/20,16:40,0.459,0.266,0.480,0.436,0.417,0.219,0.191,northwest,10.0,No
2016/01/20,16:50,0.457,0.268,0.480,0.435,0.416,0.218,0.190,northwest,10.3,No
2016/01/20,17:00,0.457,0.268,0.480,0.436,0.419,0.218,0.191,northwest,9.5,No
2016/01/20,17:10,0.459,0.268,0.479,0.438,0.419,0.218,0.191,northwest,9.5,No
2016/01/20,17:20,0.456,0.267,0.481,0.437,0.417,0.220,0.190,northwest,10.0,No
2016/01/20,17:30,0.457,0.267,0.480,0.436,0.418,0.219,0.190,northwest,8.9,No
2016/01/20,17:40,0.457,0.268,0.479,0.436,0.417,0.219,0.190,northwest,7.8,No
2016/01/20,17:50,0.458,0.267,0.480,0.439,0.416,0.218,0.191,northwest,5.5,No
2016/01/20,18:00,0.456,0.267,0.480,0.434,0.418,0.218,0.191,northwest,8.9,No
2016/01/20,18:10,0.454,0.268,0.480,0.436,0.416,0.219,0.191,northwest,7.8,No
2016/01/20,18:20,0.456,0.267,0.479,0.437,0.417,0.218,0.190,northwest,8.2,No
2016/01/20,18:30,0.458,0.269,0.479,0.436,0.418,0.220,0.192,northwest,7.3,No
2016/01/20,18:40,0.457,0.269,0.480,0.437,0.417,0.218,0.191,northwest,6.4,No
2016/01/20,18:50,0.455,0.266,0.480,0.437,0.418,0.219,0.190,northwest,6.6,No
2016/01/20,19:00,0.457,0.268,0.478,0.437,0.414,0.219,0.190,northwest,4.6,No
2016/01/20,19:10,0.457,0.268,0.479,0.436,0.419,0.218,0.191,northwest,3.0,No
2016/01/20,19:20,0.457,0.269,0.479,0.435,0.418,0.219,0.191,west-northwest,7.6,No
2016/01/20,19:30,0.457,0.268,0.482,0.435,0.417,0.219,0.191,northwest,8.5,No
2016/01/20,19:40,0.458,0.266,0.480,0.439,0.416,0.219,0.190,west-northwest,8.7,No
2016/01/20,19:50,0.457,0.267,0.480,0.436,0.415,0.218,0.190,northwest,8.9,No
2016/01/20,20:00,0.458,0.267,0.481,0.437,0.417,0.218,0.189,west-northwest,6.1,No
2016/01/20,20:10,0.457,0.268,0.479,0.438,0.414,0.219,0.190,west-northwest,5.6,No
2016/01/20,20:20,0.456,0.269,0.479,0.437,0.415,0.219,0.192,west-northwest,7.9,No
2016/01/20,20:30,0.455,0.267,0.482,0.436,0.418,0.219,0.190,northwest,8.1,No
2016/01/20,20:40,0.456,0.268,0.481,0.436,0.418,0.219,0.191,west-northwest,8.9,No
2016/01/20,20:50,0.455,0.268,0.479,0.435,0.416,0.220,0.190,west-northwest,7.3,No
2016/01/20,21:00,0.457,0.268,0.481,0.437,0.416,0.219,0.191,west,5.7,No
2016/01/20,21:10,0.456,0.268,0.481,0.436,0.416,0.218,0.191,west-northwest,5.6,No
2016/01/20,21:20,0.456,0.267,0.482,0.436,0.417,0.218,0.190,northwest,5.7,No
2016/01/20,21:30,0.456,0.268,0.479,0.435,0.417,0.218,0.190,northwest,6.1,No
2016/01/20,21:40,0.456,0.267,0.479,0.438,0.417,0.219,0.190,northwest,6.4,No
2016/01/20,21:50,0.456,0.268,0.481,0.435,0.416,0.218,0.191,northwest,5.9,No
2016/01/20,22:00,0.456,0.269,0.481,0.435,0.417,0.220,0.191,west-northwest,6.8,No
2016/01/20,22:10,0.454,0.267,0.481,0.435,0.416,0.219,0.190,northwest,6.4,No
2016/01/20,22:20,0.457,0.267,0.479,0.437,0.416,0.219,0.190,northwest,5.9,No
2016/01/20,22:30,0.457,0.267,0.482,0.436,0.417,0.219,0.190,north-northwest,4.1,No
2016/01/20,22:40,0.456,0.268,0.482,0.436,0.416,0.218,0.190,northwest,4.5,No
2016/01/20,22:50,0.456,0.267,0.480,0.436,0.416,0.218,0.191,northwest,7.9,No
2016/01/20,23:00,0.456,0.267,0.479,0.438,0.418,0.219,0.191,west-northwest,5.4,No
2016/01/20,23:10,0.455,0.269,0.480,0.436,0.418,0.219,0.191,northwest,6.2,No
2016/01/20,23:20,0.457,0.267,0.480,0.436,0.415,0.219,0.190,west-northwest,4.9,No
2016/01/20,23:30,0.455,0.267,0.479,0.437,0.415,0.219,0.190,west-northwest,3.5,No
2016/01/20,23:40,0.457,0.266,0.479,0.437,0.417,0.218,0.190,west,4.0,No
2016/01/20,23:50,0.457,0.267,0.482,0.436,0.418,0.218,0.190,west-northwest,4.1,No
